Location: Hackbridge
(51.3833°N, 0.1500°W)
Time: 19:30:32
(UTC+00:00)

COSMOS 2406 - Pass Details

Date: 13 October 2019
Orbit: 842 x 865 km, 71.0° (Epoch: 16 November)

Event Time Altitude Azimuth Distance (km) Brightness Sun altitude
Rises 17:59:04 0° 331° (NNW) 3,460 6.8 -8.0°
Reaches altitude 10° 18:01:41 10° 338° (NNW) 2,519 6.0 -8.4°
Maximum altitude 18:07:12 43° 49° (NE) 1,193 3.7 -9.3°
Drops below altitude 10° 18:12:41 10° 121° (ESE) 2,499 5.1 -10.2°
Enters shadow 18:13:18 - 123° (ESE) 2,720 5.3 -10.3°
